TimeCDT,TemperatureF,Dew PointF,Humidity,Sea Level PressureIn,VisibilityMPH,Wind Direction,Wind SpeedMPH,Gust SpeedMPH,PrecipitationIn,Events,Conditions,WindDirDegrees,DateUTC
12:15 AM,42.8,25.7,51,30.06,10.0,SSW,10.4,-,N/A,,Clear,210,2013-10-26 05:15:00
12:35 AM,42.4,26.1,52,30.06,10.0,SW,9.2,-,N/A,,Clear,220,2013-10-26 05:35:00
12:55 AM,42.1,26.2,53,30.05,10.0,SSW,11.5,-,N/A,,Clear,210,2013-10-26 05:55:00
1:15 AM,41.5,26.6,55,30.04,10.0,SSW,12.7,-,N/A,,Clear,210,2013-10-26 06:15:00
1:35 AM,41.4,26.6,56,30.03,10.0,SSW,11.5,-,N/A,,Clear,210,2013-10-26 06:35:00
1:55 AM,41.9,27.1,56,30.02,10.0,SSW,12.7,18.4,N/A,,Clear,210,2013-10-26 06:55:00
2:15 AM,41.5,27.3,57,30.01,10.0,SSW,13.8,-,N/A,,Clear,210,2013-10-26 07:15:00
2:35 AM,41.5,27.5,57,30.01,10.0,SW,13.8,-,N/A,,Clear,220,2013-10-26 07:35:00
2:55 AM,41.2,28.0,60,30.00,10.0,SW,12.7,-,N/A,,Clear,220,2013-10-26 07:55:00
3:15 AM,41.0,28.4,61,29.99,10.0,SW,11.5,-,N/A,,Clear,220,2013-10-26 08:15:00
3:35 AM,40.5,29.1,64,29.99,10.0,SW,12.7,17.3,N/A,,Clear,220,2013-10-26 08:35:00
3:55 AM,40.1,29.7,66,29.98,10.0,SW,10.4,-,N/A,,Clear,220,2013-10-26 08:55:00
4:15 AM,40.1,30.2,68,29.98,10.0,SW,8.1,-,N/A,,Clear,220,2013-10-26 09:15:00
4:35 AM,39.9,30.9,70,29.98,10.0,SW,8.1,-,N/A,,Clear,220,2013-10-26 09:35:00
4:55 AM,41.0,31.8,70,29.98,10.0,SW,8.1,-,N/A,,Clear,230,2013-10-26 09:55:00
5:15 AM,41.9,32.4,69,29.99,10.0,WSW,10.4,-,N/A,,Clear,240,2013-10-26 10:15:00
5:35 AM,41.9,32.9,70,29.99,10.0,WSW,9.2,-,N/A,,Clear,250,2013-10-26 10:35:00
5:55 AM,42.4,33.3,70,30.00,10.0,West,10.4,-,N/A,,Clear,260,2013-10-26 10:55:00
6:15 AM,42.1,32.9,70,30.00,10.0,West,10.4,-,N/A,,Clear,260,2013-10-26 11:15:00
6:35 AM,41.4,32.4,70,30.01,10.0,West,6.9,-,N/A,,Clear,270,2013-10-26 11:35:00
6:55 AM,40.3,32.2,73,30.02,10.0,West,6.9,-,N/A,,Clear,270,2013-10-26 11:55:00
7:15 AM,39.2,32.0,75,30.02,10.0,West,5.8,-,N/A,,Clear,270,2013-10-26 12:15:00
7:35 AM,38.3,32.0,78,30.03,10.0,West,5.8,-,N/A,,Clear,280,2013-10-26 12:35:00
7:55 AM,38.3,32.0,78,30.04,10.0,West,6.9,-,N/A,,Clear,280,2013-10-26 12:55:00
8:15 AM,38.8,32.0,76,30.06,10.0,WNW,6.9,-,N/A,,Clear,290,2013-10-26 13:15:00
8:35 AM,40.8,32.4,72,30.07,10.0,NW,9.2,-,N/A,,Clear,310,2013-10-26 13:35:00
8:55 AM,42.1,32.2,68,30.08,10.0,NW,6.9,-,N/A,,Clear,320,2013-10-26 13:55:00
9:15 AM,43.9,32.0,63,30.09,10.0,NNW,12.7,-,N/A,,Clear,330,2013-10-26 14:15:00
9:35 AM,45.5,30.7,56,30.09,10.0,NNW,16.1,-,N/A,,Clear,340,2013-10-26 14:35:00
9:55 AM,46.6,28.4,49,30.10,10.0,NNW,19.6,25.3,N/A,,Clear,330,2013-10-26 14:55:00
10:15 AM,47.3,27.5,46,30.11,10.0,NNW,16.1,26.5,N/A,,Clear,330,2013-10-26 15:15:00
10:35 AM,47.5,26.8,45,30.11,10.0,NW,19.6,26.5,N/A,,Clear,320,2013-10-26 15:35:00
10:55 AM,47.7,26.1,43,30.12,10.0,North,19.6,25.3,N/A,,Clear,350,2013-10-26 15:55:00
11:15 AM,48.0,26.4,43,30.13,10.0,NW,18.4,24.2,N/A,,Clear,320,2013-10-26 16:15:00
11:35 AM,48.4,24.3,39,30.14,10.0,NNW,19.6,26.5,N/A,,Clear,340,2013-10-26 16:35:00
11:55 AM,48.4,23.7,38,30.14,10.0,NNW,15.0,25.3,N/A,,Clear,340,2013-10-26 16:55:00
12:15 PM,49.1,22.8,36,30.15,10.0,NW,17.3,23.0,N/A,,Clear,320,2013-10-26 17:15:00
12:35 PM,48.9,21.2,34,30.15,10.0,NW,17.3,24.2,N/A,,Clear,320,2013-10-26 17:35:00
12:55 PM,49.1,22.8,36,30.15,10.0,NW,16.1,24.2,N/A,,Clear,320,2013-10-26 17:55:00
1:15 PM,48.0,24.3,39,30.15,10.0,NNW,13.8,23.0,N/A,,Clear,330,2013-10-26 18:15:00
1:35 PM,49.3,24.6,38,30.14,10.0,NW,12.7,19.6,N/A,,Clear,310,2013-10-26 18:35:00
1:55 PM,49.5,24.3,37,30.14,10.0,NNW,13.8,19.6,N/A,,Clear,330,2013-10-26 18:55:00
2:15 PM,50.0,23.4,35,30.14,10.0,NNW,12.7,23.0,N/A,,Clear,330,2013-10-26 19:15:00
2:35 PM,50.7,24.3,36,30.14,10.0,NW,12.7,18.4,N/A,,Clear,320,2013-10-26 19:35:00
2:55 PM,50.2,24.3,36,30.14,10.0,WNW,13.8,-,N/A,,Clear,300,2013-10-26 19:55:00
3:15 PM,50.7,24.1,35,30.14,10.0,NW,11.5,18.4,N/A,,Clear,310,2013-10-26 20:15:00
3:35 PM,51.4,24.1,34,30.13,10.0,NW,11.5,16.1,N/A,,Clear,310,2013-10-26 20:35:00
3:55 PM,50.4,24.8,37,30.14,10.0,NW,15.0,-,N/A,,Clear,310,2013-10-26 20:55:00
4:15 PM,50.7,24.8,36,30.13,10.0,NNW,13.8,-,N/A,,Clear,330,2013-10-26 21:15:00
4:35 PM,50.5,25.0,37,30.14,10.0,NW,12.7,18.4,N/A,,Clear,310,2013-10-26 21:35:00
4:55 PM,50.0,25.3,38,30.14,10.0,NW,11.5,17.3,N/A,,Clear,310,2013-10-26 21:55:00
5:15 PM,49.3,25.7,40,30.14,10.0,NW,11.5,-,N/A,,Clear,320,2013-10-26 22:15:00
5:35 PM,48.4,25.5,41,30.13,10.0,WNW,10.4,-,N/A,,Clear,300,2013-10-26 22:35:00
5:55 PM,46.6,26.4,45,30.13,10.0,WNW,6.9,-,N/A,,Clear,300,2013-10-26 22:55:00
6:15 PM,44.6,26.2,49,30.14,10.0,NW,5.8,-,N/A,,Clear,310,2013-10-26 23:15:00
6:35 PM,41.7,26.2,54,30.14,10.0,WNW,4.6,-,N/A,,Clear,300,2013-10-26 23:35:00
6:55 PM,41.7,25.9,53,30.15,10.0,West,4.6,-,N/A,,Clear,280,2013-10-26 23:55:00
7:15 PM,40.6,26.2,57,30.15,10.0,West,3.5,-,N/A,,Clear,280,2013-10-27 00:15:00
7:35 PM,38.7,26.2,61,30.15,10.0,West,3.5,-,N/A,,Clear,260,2013-10-27 00:35:00
7:55 PM,37.6,26.6,65,30.15,10.0,West,4.6,-,N/A,,Clear,260,2013-10-27 00:55:00
8:15 PM,38.8,26.6,61,30.15,10.0,West,5.8,-,N/A,,Clear,260,2013-10-27 01:15:00
8:35 PM,36.1,26.6,68,30.15,10.0,West,4.6,-,N/A,,Clear,270,2013-10-27 01:35:00
8:55 PM,35.1,26.6,71,30.16,10.0,West,4.6,-,N/A,,Clear,280,2013-10-27 01:55:00
9:15 PM,35.1,26.6,71,30.16,10.0,West,4.6,-,N/A,,Clear,260,2013-10-27 02:15:00
9:35 PM,34.9,27.0,73,30.16,10.0,West,4.6,-,N/A,,Clear,270,2013-10-27 02:35:00
9:55 PM,35.2,27.1,72,30.16,10.0,West,3.5,-,N/A,,Clear,280,2013-10-27 02:55:00
10:15 PM,35.4,27.1,72,30.16,10.0,West,4.6,-,N/A,,Clear,270,2013-10-27 03:15:00
10:35 PM,33.8,26.8,75,30.16,10.0,West,4.6,-,N/A,,Clear,280,2013-10-27 03:35:00
10:55 PM,35.1,27.0,72,30.16,10.0,West,4.6,-,N/A,,Clear,270,2013-10-27 03:55:00
11:15 PM,34.2,27.0,75,30.16,10.0,West,4.6,-,N/A,,Clear,270,2013-10-27 04:15:00
11:35 PM,34.0,26.8,75,30.15,10.0,West,5.8,-,N/A,,Clear,280,2013-10-27 04:35:00
11:55 PM,33.1,26.4,77,30.14,10.0,West,4.6,-,N/A,,Clear,270,2013-10-27 04:55:00